N8QYG-1 Weather Reports


time (UTC)temp
F
wind
direction
speed
knots
gust
knots
rain 1hr
in
rain 24hr
in
rain mn
in
humidity
%
barometer
mb
20260503194018 64 205 0.9 2.6 0.00 0.02 0.02 3 1007.3
20260503193018 63 192 4.3 7.8 0.00 0.02 0.02 3 1007.3
20260503191020 64 284 4.3 4.3 0.00 0.02 0.02 3 1007.4
20260503190018 64 203 6.1 6.1 0.00 0.02 0.02 3 1007.4
20260503185018 63 223 6.1 16.5 0.00 0.02 0.02 3 1007.7
20260503184021 63 252 9.6 11.3 0.00 0.02 0.02 3 1007.9
20260503183018 61 239 10.4 10.4 0.00 0.02 0.02 3 1007.9
20260503182018 61 279 7.0 7.0 0.00 0.02 0.02 3 1008.2
20260503181018 62 264 4.3 8.7 0.00 0.02 0.02 3 1008.5
20260503180018 61 253 11.3 12.2 0.00 0.02 0.02 3 1008.5
20260503175018 60 259 13.9 15.6 0.00 0.02 0.02 4 1008.8
20260503174019 59 237 4.3 7.8 0.00 0.02 0.02 4 1009.0
20260503173018 59 209 5.2 7.8 0.00 0.02 0.02 4 1009.0
20260503172019 60 263 14.8 16.5 0.00 0.02 0.02 4 1009.2
20260503171021 59 209 2.6 5.2 0.00 0.02 0.02 4 1009.6
20260503131018 47 204 1.7 2.6 0.00 0.01 0.01 5 1011.1
20260503081019 29 0 0.0 0.0 0.01 0.01 0.01 8 1012.1
20260503072019 30 0 0.0 0.0 0.00 0.00 0.00 8 1012.2
20260503071020 30 0 0.0 0.0 0.00 0.00 0.00 8 1012.3
20260503055021 33 0 0.0 0.9 0.00 0.00 0.00 7 1012.8
20260503054019 34 0 0.0 0.9 0.00 0.00 0.00 7 1012.8
20260503053019 34 0 0.0 0.0 0.00 0.00 0.00 7 1012.8
20260503052018 34 0 0.0 0.0 0.00 0.00 0.00 7 1012.8
20260503051019 35 0 0.0 0.0 0.00 0.00 0.00 7 1012.8
20260503050018 35 0 0.0 0.0 0.00 0.00 0.00 7 1012.8
20260503045019 35 0 0.0 0.0 0.00 0.00 0.00 7 1012.9
20260503044019 35 0 0.0 0.0 0.00 0.00 0.00 7 1012.9
20260503043021 35 0 0.0 0.0 0.00 0.00 0.00 7 1012.9
20260503042018 35 247 0.9 0.9 0.00 0.00 0.00 7 1013.0
20260503041018 35 0 0.0 0.9 0.00 0.00 0.00 7 1013.2
20260503040020 35 247 0.9 0.9 0.00 0.00 0.00 7 1013.2
20260503035019 35 247 0.9 0.9 0.00 0.00 0.00 7 1013.2
20260503034021 35 0 0.0 0.0 0.00 0.00 0.00 7 1013.2
20260503033019 35 247 0.9 0.9 0.00 0.00 0.00 7 1013.2
20260503032019 35 247 0.9 1.7 0.00 0.00 0.00 7 1013.3
20260503031019 36 0 0.0 0.0 0.00 0.00 0.00 7 1013.3
20260503030019 36 0 0.0 0.0 0.00 0.00 0.00 7 1013.3
20260503025020 36 0 0.0 0.0 0.00 0.00 0.00 7 1013.3
20260503024018 37 247 0.9 0.9 0.00 0.00 0.00 6 1013.4
20260503023019 37 0 0.0 0.0 0.00 0.00 0.00 6 1013.4
20260503022020 37 0 0.0 0.0 0.00 0.00 0.00 6 1013.4
20260503021019 38 0 0.0 0.0 0.00 0.00 0.00 6 1013.3
20260503020020 39 247 0.9 0.9 0.00 0.00 0.00 6 1013.3
20260503015019 39 0 0.0 0.0 0.00 0.00 0.00 6 1013.3
20260503014018 40 0 0.0 0.0 0.00 0.00 0.00 6 1013.2
20260503013020 41 0 0.0 0.0 0.00 0.00 0.00 5 1013.2
20260503012020 42 0 0.0 0.0 0.00 0.00 0.00 5 1013.2
20260503011019 43 0 0.0 0.0 0.00 0.00 0.00 5 1013.2
20260503010019 43 0 0.0 0.0 0.00 0.00 0.00 5 1013.2
20260503005020 44 247 0.9 0.9 0.00 0.00 0.00 5 1013.2
20260503004020 45 0 0.0 0.0 0.00 0.00 0.00 5 1013.1
20260503003019 46 0 0.0 0.9 0.00 0.00 0.00 4 1013.1
20260503002020 47 247 2.6 2.6 0.00 0.00 0.00 4 1013.0
20260503001021 47 257 0.9 0.9 0.00 0.00 0.00 4 1013.0
20260503000018 48 255 2.6 2.6 0.00 0.00 0.00 4 1013.0
20260502235021 47 293 3.5 4.3 0.00 0.00 0.00 4 1013.0
20260502234018 47 281 1.7 2.6 0.00 0.00 0.00 4 1013.1
20260502233021 47 273 1.7 1.7 0.00 0.00 0.00 4 1013.1
20260502232021 47 306 2.6 2.6 0.00 0.00 0.00 4 1013.2
20260502231019 47 296 2.6 3.5 0.00 0.00 0.00 4 1013.2
20260502230020 47 300 6.1 6.1 0.00 0.00 0.00 4 1013.2
20260502225018 47 302 1.7 4.3 0.00 0.00 0.00 4 1013.2
20260502224020 47 319 2.6 4.3 0.00 0.00 0.00 4 1013.2
20260502223019 47 274 5.2 6.1 0.00 0.00 0.00 4 1013.2
20260502222019 48 272 2.6 3.5 0.00 0.00 0.00 4 1013.2
20260502221020 48 286 2.6 2.6 0.00 0.00 0.00 4 1013.2
20260502220018 48 294 6.1 6.1 0.00 0.00 0.00 4 1013.2
20260502215020 48 300 7.0 7.8 0.00 0.00 0.00 4 1013.2
20260502214018 48 308 5.2 7.0 0.00 0.00 0.00 4 1013.2
20260502213021 48 318 2.6 5.2 0.00 0.00 0.00 4 1013.2
20260502212019 47 267 6.1 6.1 0.00 0.00 0.00 4 1013.3
20260502211020 47 288 7.0 7.8 0.00 0.00 0.00 4 1013.4
20260502210020 47 321 5.2 7.0 0.00 0.00 0.00 4 1013.4
20260502205020 47 277 5.2 5.2 0.00 0.00 0.00 4 1013.3
20260502204018 47 276 2.6 3.5 0.00 0.00 0.00 4 1013.5
20260502203022 47 284 5.2 5.2 0.00 0.00 0.00 4 1013.5
20260502202019 48 279 2.6 3.5 0.00 0.00 0.00 4 1013.6
20260502201019 47 284 2.6 3.5 0.00 0.00 0.00 4 1013.8
20260502200018 47 300 1.7 1.7 0.00 0.00 0.00 4 1013.8
20260502195020 47 332 2.6 3.5 0.00 0.00 0.00 4 1013.8